Location: *
(45.5667°S, 177.5167°W)
Time: 22:06:00
(UTC+00:00)

ARGOS - Pass Details

Date: 29 May 2022
Orbit: 820 x 834 km, 98.4° (Epoch: 24 June)

Event Time Altitude Azimuth Distance (km) Brightness Sun altitude
Exits shadow 07:12:25 60° 214° (SW) 959 3.5 -29.9°
Maximum altitude 07:13:05 65° 252° (WSW) 916 3.4 -30.0°
Drops below altitude 10° 07:18:25 10° 333° (NNW) 2,430 5.9 -31.0°
Sets 07:20:46 0° 335° (NNW) 3,353 6.6 -31.4°
